FW1508 Weather Reports


time (UTC)temp
C
wind
direction
speed
KPH
gust
KPH
rain 1hr
cm
rain 24hr
cm
rain mn
cm
humidity
%
barometer
mb
20260503200308 15 250 6.4 19.3 0.00 0.00 0.00 39 1010.5
20260503195538 15 250 8.0 20.9 0.00 0.00 0.00 39 1010.5
20260503195036 15 246 6.4 20.9 0.00 0.00 0.00 38 1010.8
20260503194538 14 252 6.4 20.9 0.00 0.00 0.00 40 1010.6
20260503194037 15 255 4.8 19.3 0.00 0.00 0.00 40 1010.9
20260503193538 15 259 4.8 29.0 0.00 0.00 0.00 40 1010.9
20260503193307 15 259 6.4 29.0 0.00 0.00 0.00 40 1011.0
20260503192535 14 240 4.8 19.3 0.00 0.00 0.00 41 1011.0
20260503192034 13 238 4.8 12.9 0.00 0.00 0.00 41 1011.3
20260503191533 13 238 4.8 20.9 0.00 0.00 0.00 41 1011.5
20260503191036 13 238 6.4 20.9 0.00 0.00 0.00 41 1011.3
20260503190807 13 234 6.4 16.1 0.00 0.00 0.00 40 1011.3
20260503190308 13 231 4.8 17.7 0.00 0.00 0.00 42 1011.5
20260503185531 13 231 6.4 20.9 0.00 0.00 0.00 40 1011.6
20260503185029 13 229 6.4 22.5 0.00 0.00 0.00 41 1011.6
20260503184531 14 223 6.4 22.5 0.00 0.00 0.00 41 1011.5
20260503184032 13 298 6.4 20.9 0.00 0.00 0.00 41 1011.5
20260503183530 13 296 6.4 20.9 0.00 0.00 0.00 40 1011.8
20260503183302 13 305 6.4 20.9 0.00 0.00 0.00 41 1011.7
20260503182527 13 325 4.8 17.7 0.00 0.00 0.00 42 1011.7
20260503182027 13 325 4.8 20.9 0.00 0.00 0.00 41 1011.8
20260503181526 13 326 8.0 22.5 0.00 0.00 0.00 41 1012.0
20260503181027 13 340 9.7 25.7 0.00 0.00 0.00 40 1012.0
20260503180529 13 333 8.0 25.7 0.00 0.00 0.00 40 1012.2
20260503180033 13 254 4.8 16.1 0.00 0.00 0.00 43 1012.1
20260503180027 14 241 4.8 20.9 0.00 0.00 0.00 41 1012.1
20260503175022 13 254 4.8 17.7 0.00 0.00 0.00 41 1012.1
20260503174522 13 255 6.4 22.5 0.00 0.00 0.00 41 1012.0
20260503174022 13 259 8.0 22.5 0.00 0.00 0.00 41 1012.2
20260503173753 13 256 6.4 22.5 0.00 0.00 0.00 40 1012.4
20260503173022 13 234 6.4 25.7 0.00 0.00 0.00 42 1012.2
20260503172753 13 234 6.4 25.7 0.00 0.00 0.00 41 1012.2
20260503172023 13 246 6.4 24.1 0.00 0.00 0.00 43 1012.1
20260503171517 12 246 8.0 24.1 0.00 0.00 0.00 43 1012.3
20260503171013 12 248 8.0 24.1 0.00 0.00 0.00 44 1012.3
20260503170513 12 250 8.0 24.1 0.00 0.00 0.00 43 1012.4
20260503151004 10 198 3.2 12.9 0.00 0.00 0.00 46 1013.6
20260503150735 10 198 3.2 12.9 0.00 0.03 0.00 48 1013.5
20260503131208 3 198 1.6 9.7 0.00 0.08 0.00 85 1014.3
20260503130436 2 198 1.6 8.0 0.00 0.08 0.00 91 1014.2
20260503110420 0 198 0.0 0.0 0.00 0.08 0.00 94 1014.1
20260503090358 -1 198 0.0 0.0 0.00 0.08 0.00 93 1013.7
20260503081612 -1 198 0.0 0.0 0.00 0.08 0.00 92 1013.6
20260503080841 -1 198 0.0 0.0 0.00 0.08 0.00 92 1013.6
20260503080334 -1 198 0.0 0.0 0.00 0.08 0.00 92 1013.6
20260503072819 -1 198 0.0 0.0 0.00 0.08 0.00 92 1013.6
20260503072321 -1 198 0.0 0.0 0.00 0.08 0.00 92 1013.5
20260503072316 -1 198 0.0 0.0 0.00 0.08 0.00 92 1013.6
20260503071543 -1 198 0.0 0.0 0.00 0.08 0.00 92 1013.5
20260503070808 -1 198 0.0 0.0 0.00 0.08 0.00 91 1013.5
20260503070307 -1 198 0.0 0.0 0.00 0.08 0.00 91 1013.4
20260503060245 0 198 0.0 0.0 0.00 0.08 0.00 89 1013.8
20260503054740 0 198 0.0 0.0 0.00 0.08 0.00 89 1013.8
20260503054239 0 198 0.0 0.0 0.00 0.08 0.00 89 1013.8
20260503054011 0 198 0.0 0.0 0.00 0.08 0.00 88 1013.8
20260503053238 0 198 0.0 0.0 0.00 0.08 0.00 88 1013.9
20260503052738 0 198 0.0 0.0 0.00 0.08 0.00 88 1013.9
20260503052503 0 198 0.0 0.0 0.00 0.08 0.00 87 1013.9
20260503052003 0 198 0.0 0.0 0.00 0.08 0.00 87 1013.9
20260503051228 0 198 0.0 0.0 0.00 0.08 0.00 87 1013.9
20260503050727 0 198 0.0 0.0 0.00 0.08 0.00 87 1013.9
20260503050456 0 198 0.0 0.0 0.00 0.08 0.00 87 1013.9
20260503045724 0 198 0.0 0.0 0.00 0.08 0.00 86 1014.0
20260503045455 0 198 0.0 0.0 0.00 0.08 0.00 86 1014.0
20260503044724 0 198 0.0 0.0 0.00 0.08 0.00 86 1014.0
20260503044224 0 198 0.0 0.0 0.00 0.08 0.00 86 1013.9
20260503043956 1 198 0.0 0.0 0.00 0.08 0.00 86 1014.0
20260503043454 1 198 0.0 0.0 0.00 0.08 0.00 86 1014.0
20260503042722 1 198 0.0 0.0 0.00 0.08 0.00 85 1013.9
20260503042218 1 198 0.0 0.0 0.00 0.08 0.00 85 1014.0
20260503041718 1 198 0.0 0.0 0.00 0.08 0.00 84 1014.0
20260503041218 1 198 0.0 0.0 0.00 0.08 0.00 84 1014.0
20260503040718 1 198 0.0 0.0 0.00 0.08 0.00 83 1014.0
20260503040217 2 198 0.0 0.0 0.00 0.08 0.00 83 1014.0
20260503035714 2 198 0.0 0.0 0.00 0.08 0.08 83 1014.0
20260503035207 2 198 0.0 0.0 0.00 0.08 0.08 82 1014.0
20260503034708 2 198 0.0 0.0 0.00 0.08 0.08 82 1014.0
20260503034434 2 198 0.0 0.0 0.00 0.08 0.08 82 1014.0
20260503033701 2 198 0.0 0.0 0.00 0.08 0.08 82 1013.9
20260503033203 2 198 0.0 0.0 0.00 0.08 0.08 81 1013.9
20260503032656 2 198 0.0 0.0 0.00 0.08 0.08 81 1014.0
20260503032200 2 198 0.0 0.0 0.00 0.08 0.08 80 1014.0
20260503032154 2 198 0.0 0.0 0.00 0.08 0.08 81 1014.0
20260503031149 2 198 0.0 0.0 0.00 0.08 0.08 79 1014.1
20260503030651 2 198 0.0 0.0 0.00 0.08 0.08 79 1014.1
20260503030142 2 198 0.0 0.0 0.00 0.08 0.08 79 1014.1
20260503025913 3 198 0.0 0.0 0.00 0.08 0.08 79 1014.2
20260503025411 3 198 0.0 0.0 0.00 0.08 0.08 78 1014.1
20260503024637 3 198 0.0 0.0 0.00 0.08 0.08 78 1014.2
20260503024139 3 198 0.0 0.0 0.00 0.08 0.08 78 1014.2
20260503023906 3 198 0.0 0.0 0.00 0.08 0.08 78 1014.3
20260503023133 3 198 0.0 0.0 0.00 0.08 0.08 78 1014.3
20260503022633 3 198 0.0 0.0 0.00 0.08 0.08 77 1014.3
20260503022133 3 198 0.0 0.0 0.00 0.08 0.08 76 1014.3
20260503021631 3 198 0.0 0.0 0.00 0.08 0.08 76 1014.3
20260503021131 3 198 0.0 0.0 0.00 0.08 0.08 74 1014.3
20260503020858 3 198 0.0 0.0 0.00 0.08 0.08 74 1014.3
20260503020359 3 198 0.0 0.0 0.00 0.08 0.08 74 1014.3
20260503015628 3 198 0.0 0.0 0.00 0.08 0.08 73 1014.2
20260503015128 3 198 0.0 0.0 0.00 0.08 0.08 72 1014.2
20260503014856 3 198 0.0 0.0 0.00 0.08 0.08 76 1014.2
20260503014125 3 198 0.0 0.0 0.00 0.08 0.08 71 1014.2
20260503013619 4 198 0.0 0.0 0.00 0.08 0.08 71 1014.2
20260503013117 4 198 0.0 0.0 0.00 0.08 0.08 71 1014.2
20260503012615 4 198 0.0 0.0 0.00 0.08 0.08 70 1014.1
20260503012114 4 198 0.0 0.0 0.00 0.08 0.08 69 1014.1
20260503011612 4 198 0.0 0.0 0.00 0.08 0.08 68 1014.2
20260503011107 4 198 0.0 0.0 0.00 0.08 0.08 68 1014.1
20260503010605 4 198 0.0 0.0 0.00 0.08 0.08 66 1014.1
20260503010103 5 198 0.0 0.0 0.00 0.08 0.08 65 1014.0
20260503005601 5 198 0.0 1.6 0.00 0.08 0.08 64 1014.0
20260503005102 5 198 0.0 1.6 0.00 0.08 0.08 67 1013.9
20260503004827 5 198 0.0 1.6 0.00 0.08 0.08 67 1013.8
20260503004053 5 198 0.0 1.6 0.00 0.08 0.08 64 1013.7
20260503003551 5 198 0.0 1.6 0.00 0.08 0.08 66 1013.6
20260503003319 5 198 0.0 1.6 0.00 0.08 0.08 66 1013.7
20260503002821 5 198 0.0 1.6 0.00 0.08 0.08 65 1013.8
20260503002043 5 198 0.0 1.6 0.00 0.08 0.08 63 1013.7
20260503001541 5 198 0.0 1.6 0.00 0.08 0.08 63 1013.6
20260503001039 5 198 0.0 1.6 0.00 0.08 0.08 64 1013.7
20260503000810 5 198 0.0 3.2 0.00 0.08 0.08 64 1013.6
20260503000036 5 198 0.0 3.2 0.00 0.08 0.08 61 1013.6
20260502235531 5 198 0.0 1.6 0.00 0.08 0.08 63 1013.6
20260502235028 5 198 0.0 0.0 0.00 0.08 0.08 62 1013.5
20260502234528 5 198 0.0 0.0 0.00 0.08 0.08 62 1013.5
20260502234029 5 198 0.0 8.0 0.00 0.08 0.08 59 1013.5
20260502233527 5 198 0.0 8.0 0.00 0.08 0.08 60 1013.5
20260502233029 5 198 0.0 3.2 0.00 0.08 0.08 61 1013.5
20260502232522 5 198 0.0 3.2 0.00 0.08 0.08 58 1013.5
20260502232024 6 198 0.0 6.4 0.00 0.08 0.08 61 1013.5
20260502231753 6 198 0.0 6.4 0.00 0.08 0.08 60 1013.4
20260502231023 6 198 0.0 3.2 0.00 0.08 0.08 59 1013.4
20260502230521 6 198 0.0 1.6 0.00 0.08 0.08 61 1013.4
20260502230021 6 198 0.0 3.2 0.00 0.08 0.08 60 1013.3
20260502225515 6 198 0.0 3.2 0.00 0.10 0.08 58 1013.4
20260502225014 6 198 0.0 4.8 0.00 0.10 0.08 59 1013.4
20260502224511 6 198 1.6 4.8 0.00 0.10 0.08 62 1013.4
20260502224009 6 198 1.6 6.4 0.00 0.10 0.08 60 1013.3
20260502223509 6 198 1.6 6.4 0.00 0.10 0.08 57 1013.3
20260502223004 6 198 0.0 6.4 0.00 0.10 0.08 58 1013.3
20260502222504 6 198 0.0 4.8 0.00 0.10 0.08 58 1013.3
20260502222003 6 198 0.0 3.2 0.00 0.10 0.08 57 1013.2
20260502221503 6 198 0.0 1.6 0.00 0.10 0.08 60 1013.4
20260502221003 6 198 0.0 1.6 0.00 0.10 0.08 59 1013.3
20260502220502 6 198 1.6 6.4 0.00 0.10 0.08 56 1013.3
20260502215957 6 198 0.0 6.4 0.00 0.13 0.08 58 1013.3
20260502215456 6 198 0.0 3.2 0.00 0.13 0.08 57 1013.3
20260502214953 6 198 0.0 3.2 0.00 0.13 0.08 56 1013.3
20260502214451 6 198 0.0 6.4 0.00 0.15 0.08 56 1013.3
20260502213951 6 198 0.0 6.4 0.00 0.15 0.08 55 1013.2
20260502213444 6 198 1.6 6.4 0.00 0.15 0.08 56 1013.0
20260502212942 6 198 1.6 11.3 0.00 0.15 0.08 56 1013.0
20260502212442 6 198 0.0 11.3 0.00 0.15 0.08 56 1013.2
20260502211943 6 198 1.6 6.4 0.00 0.15 0.08 59 1013.2
20260502211441 6 198 1.6 9.7 0.00 0.15 0.08 56 1013.0
20260502210940 6 198 1.6 9.7 0.00 0.18 0.08 56 1013.2
20260502210435 6 198 1.6 9.7 0.00 0.18 0.08 59 1012.9
20260502210204 6 198 1.6 9.7 0.00 0.18 0.08 54 1012.9
20260502205705 7 198 1.6 9.7 0.00 0.18 0.08 56 1013.0
20260502204932 7 198 3.2 14.5 0.00 0.18 0.08 54 1012.9
20260502204431 7 198 3.2 14.5 0.00 0.20 0.08 53 1012.8
20260502203932 7 198 1.6 14.5 0.00 0.20 0.08 55 1012.7
20260502203432 7 198 1.6 14.5 0.00 0.20 0.08 56 1012.7
20260502202930 7 198 1.6 8.0 0.00 0.20 0.08 60 1012.7
20260502202429 6 198 1.6 8.0 0.00 0.23 0.08 57 1012.8
20260502201926 6 198 1.6 4.8 0.00 0.23 0.08 62 1013.0
20260502201425 6 198 1.6 4.8 0.00 0.23 0.08 58 1013.0
20260502200925 6 198 0.0 4.8 0.00 0.25 0.08 63 1013.0